Weather History for KFLL - October, 2012

Change the Weather History Date:

Tuesday, October 9, 2012

  Actual Average Record
Temperature  
Mean Temperature 83 °F 82 °F  
Max Temperature 89 °F 87 °F 98 °F (2000)
Min Temperature 77 °F 76 °F 56 °F (1920)
Degree Days  
Heating Degree Days 0 0  
Month to date heating degree days 0 0  
Since 1 July heating degree days 0 0  
Cooling Degree Days 18 17  
Month to date cooling degree days 157 154  
Year to date cooling degree days 3871 3866  
Growing Degree Days 32 (Base 50)    
Moisture  
Dew Point 75 °F    
Average Humidity 77    
Maximum Humidity 94    
Minimum Humidity 59    
Precipitation  
Precipitation 0.00 in 0.29 in 3.20 in (1942)
Month to date precipitation 6.13 2.51  
Year to date precipitation 57.05 52.17  
Snow  
Snow 0.00 in - - ()
Month to date snowfall 0.0  
Since 1 July snowfall 0.0  
Since 1 September snowfall 0.0  
Snow Depth 0.00 in    
Sea Level Pressure  
Sea Level Pressure 29.98 in    
Wind  
Wind Speed 6 mph (NE)    
Max Wind Speed 14 mph    
Max Gust Speed 17 mph    
Visibility 10 miles    
Events      
T = Trace of Precipitation, MM = Missing Value Source: NWS Daily Summary

Daily Weather History Graph

Daily Weather History Graph

Search for Another Location

Airport or City:

Trip Planner

Search our weather history database for the weather conditions in past years. The results will help you decide how hot, cold, wet, or windy it might be!

Date:

Astronomy

Oct. 09, 2012 Rise Set
Actual Time 7:16 AM EDT 6:58 PM EDT
Civil Twilight 6:53 AM EDT 7:21 PM EDT
Nautical Twilight 6:26 AM EDT 7:48 PM EDT
Astronomical Twilight 6:00 AM EDT 8:14 PM EDT
Moon 1:25 AM EDT (10/9) 2:53 PM EDT (10/9)
Length of Visible Light 12h 27m
Length of Day
11h 41m
Last Quarter, 37% of the Moon is Illuminated
Oct 9
Last Quarter
Oct 15
New
Oct 21
First Quarter
Oct 29
Full
Nov 6
Last Quarter

Hourly Weather History & Observations

Time (EDT) Temp. Heat Index Dew Point Humidity Pressure Visibility Wind Dir Wind Speed Gust Speed Precip Events Conditions
12:53 AM 80.1 °F 85.1 °F 75.0 °F 85% 29.98 in 10.0 mi NW 3.5 mph - N/A   Partly Cloudy
1:53 AM 79.0 °F - 75.9 °F 90% 29.96 in 10.0 mi Calm Calm - N/A   Partly Cloudy
2:53 AM 78.1 °F - 75.9 °F 93% 29.96 in 10.0 mi Calm Calm - N/A   Partly Cloudy
3:53 AM 78.1 °F - 75.9 °F 93% 29.95 in 10.0 mi Calm Calm - N/A   Partly Cloudy
4:53 AM 78.1 °F - 75.0 °F 90% 29.96 in 10.0 mi North 4.6 mph - N/A   Partly Cloudy
5:53 AM 77.0 °F - 75.0 °F 94% 29.96 in 10.0 mi Calm Calm - N/A   Partly Cloudy
6:53 AM 78.1 °F - 75.9 °F 93% 29.96 in 9.0 mi Calm Calm - 0.01 in   Partly Cloudy
7:53 AM 78.1 °F - 75.9 °F 93% 29.97 in 9.0 mi NNW 3.5 mph - N/A   Partly Cloudy
8:53 AM 81.0 °F 87.3 °F 75.9 °F 85% 29.99 in 10.0 mi North 8.1 mph - N/A   Partly Cloudy
9:53 AM 84.0 °F 91.9 °F 75.0 °F 74% 30.01 in 10.0 mi North 5.8 mph - N/A   Partly Cloudy
10:53 AM 86.0 °F 93.8 °F 73.9 °F 67% 30.01 in 10.0 mi North 4.6 mph - N/A   Partly Cloudy
11:53 AM 88.0 °F 96.5 °F 73.9 °F 63% 30.01 in 10.0 mi East 3.5 mph - N/A   Scattered Clouds
12:53 PM 88.0 °F 94.7 °F 72.0 °F 59% 30.00 in 10.0 mi East 9.2 mph - N/A   Partly Cloudy
1:53 PM 84.9 °F 90.1 °F 71.1 °F 63% 29.98 in 10.0 mi East 12.7 mph - N/A   Scattered Clouds
2:53 PM 86.0 °F 93.8 °F 73.9 °F 67% 29.96 in 10.0 mi East 8.1 mph - N/A   Scattered Clouds
3:53 PM 87.1 °F 94.5 °F 73.0 °F 63% 29.95 in 10.0 mi ENE 10.4 mph - N/A   Scattered Clouds
4:53 PM 84.9 °F 93.3 °F 75.0 °F 72% 29.96 in 10.0 mi East 11.5 mph - N/A   Scattered Clouds
5:53 PM 84.0 °F 91.9 °F 75.0 °F 74% 29.95 in 10.0 mi ENE 12.7 mph - N/A   Scattered Clouds
6:53 PM 82.9 °F 90.2 °F 75.0 °F 77% 29.96 in 10.0 mi ENE 10.4 mph - N/A   Scattered Clouds
7:53 PM 82.9 °F 90.8 °F 75.9 °F 79% 29.97 in 10.0 mi NE 10.4 mph - N/A   Partly Cloudy
8:53 PM 82.9 °F 89.4 °F 73.9 °F 74% 30.00 in 10.0 mi ENE 5.8 mph - N/A   Mostly Cloudy
9:53 PM 82.9 °F 89.4 °F 73.9 °F 74% 30.02 in 10.0 mi NE 4.6 mph - N/A   Mostly Cloudy
10:53 PM 82.9 °F 89.4 °F 73.9 °F 74% 30.02 in 10.0 mi NNE 5.8 mph - N/A   Scattered Clouds
11:53 PM 81.0 °F 86.7 °F 75.0 °F 82% 30.02 in 10.0 mi NNW 3.5 mph - N/A   Scattered Clouds